KI5RKU-09 Weather Reports


time (UTC)temp
C
wind
direction
speed
KPH
gust
KPH
rain 1hr
cm
rain 24hr
cm
rain mn
cm
humidity
%
barometer
mb
20260509055026 21 196 4.8 9.7 0.00 0.13 0.00 82 1011.2
20260509054600 21 187 3.2 8.0 0.00 0.13 0.00 81 1011.6
20260509054028 21 187 4.8 8.0 0.00 0.13 0.00 81 1011.6
20260509053529 21 187 1.6 8.0 0.00 0.13 0.00 81 1012.0
20260509053046 21 187 1.6 9.7 0.00 0.13 0.00 80 1011.8
20260509052524 21 172 4.8 9.7 0.00 0.13 0.00 79 1011.7
20260509052032 22 186 4.8 8.0 0.00 0.13 0.00 79 1011.8
20260509051547 21 292 1.6 9.7 0.00 0.13 0.00 79 1012.5
20260509051027 21 298 3.2 9.7 0.00 0.13 0.00 79 1012.7
20260509050529 21 306 3.2 6.4 0.00 0.13 0.00 80 1012.6
20260509050042 21 0 0.0 14.5 0.00 0.13 0.00 79 1011.8
20260509045529 21 229 6.4 14.5 0.00 0.13 0.13 79 1011.2
20260509045028 21 169 6.4 17.7 0.00 0.13 0.13 79 1011.0
20260509044538 21 167 6.4 19.3 0.00 0.13 0.13 79 1010.9
20260509044029 21 173 8.0 22.5 0.00 0.13 0.13 78 1010.7
20260509043527 21 184 9.7 22.5 0.00 0.13 0.13 78 1010.7
20260509043043 22 163 9.7 16.1 0.00 0.13 0.13 77 1010.6
20260509042528 22 161 3.2 9.7 0.00 0.13 0.13 77 1010.9
20260509042029 22 148 3.2 9.7 0.00 0.13 0.13 76 1011.0
20260509041542 22 171 0.0 12.9 0.00 0.13 0.13 76 1010.9
20260509041031 22 86 3.2 17.7 0.00 0.13 0.13 76 1010.9
20260509040528 22 162 6.4 17.7 0.00 0.13 0.13 77 1010.6
20260509040046 22 184 6.4 17.7 0.00 0.13 0.13 76 1010.7
20260509035528 22 146 1.6 9.7 0.00 0.13 0.13 76 1010.9
20260509035028 22 111 1.6 9.7 0.00 0.13 0.13 76 1010.9
20260509034541 22 116 0.0 3.2 0.00 0.13 0.13 76 1011.1
20260509034028 22 116 0.0 3.2 0.00 0.13 0.13 77 1011.5
20260509033530 22 116 0.0 3.2 0.00 0.13 0.13 76 1011.7
20260509033036 22 0 0.0 3.2 0.00 0.13 0.13 76 1011.6
20260509032528 22 0 0.0 3.2 0.00 0.13 0.13 76 1011.3
20260509032029 22 0 0.0 4.8 0.00 0.13 0.13 77 1011.2
20260509031559 22 0 0.0 4.8 0.00 0.13 0.13 77 1011.1
20260509031028 22 116 0.0 8.0 0.00 0.13 0.13 77 1011.2
20260509030528 22 0 0.0 8.0 0.00 0.13 0.13 77 1011.0
20260509030042 22 71 1.6 8.0 0.00 0.13 0.13 77 1011.1
20260509025526 22 111 1.6 8.0 0.00 0.13 0.13 77 1011.1
20260509025028 22 148 0.0 14.5 0.00 0.13 0.13 77 1010.8
20260509024538 22 148 1.6 17.7 0.00 0.13 0.13 77 1010.7
20260509024032 22 111 4.8 19.3 0.00 0.13 0.13 77 1010.5
20260509023527 22 127 8.0 19.3 0.00 0.13 0.13 77 1010.3
20260509023039 22 155 4.8 19.3 0.00 0.13 0.13 77 1010.1
20260509022532 22 116 9.7 19.3 0.00 0.13 0.13 77 1009.9
20260509022029 22 158 6.4 19.3 0.00 0.13 0.13 77 1010.0
20260509021542 22 108 6.4 17.7 0.00 0.13 0.13 76 1009.6
20260509021027 22 163 4.8 14.5 0.00 0.13 0.13 76 1009.6
20260509020527 22 167 4.8 17.7 0.00 0.13 0.13 76 1009.8
20260509020045 22 148 8.0 19.3 0.00 0.13 0.13 76 1009.9
20260509015528 22 138 6.4 19.3 0.00 0.13 0.13 75 1009.7
20260509015030 22 173 6.4 17.7 0.00 0.13 0.13 75 1009.7
20260509014544 22 164 8.0 17.7 0.00 0.13 0.13 75 1009.7
20260509014028 22 164 8.0 17.7 0.00 0.13 0.13 75 1009.4
20260509013527 22 193 6.4 16.1 0.00 0.13 0.13 75 1009.5
20260509013043 22 146 6.4 16.1 0.00 0.13 0.13 75 1009.7
20260509012529 22 160 6.4 12.9 0.00 0.13 0.13 74 1009.6
20260509012029 22 167 3.2 12.9 0.00 0.13 0.13 74 1009.6
20260509011537 22 163 6.4 14.5 0.00 0.13 0.13 74 1009.6
20260509011029 22 183 6.4 17.7 0.00 0.13 0.13 74 1009.6
20260509010528 22 172 6.4 22.5 0.00 0.13 0.13 74 1009.6
20260509010043 22 196 9.7 22.5 0.00 0.13 0.13 73 1009.6
20260509005530 22 192 4.8 24.1 0.00 0.13 0.13 73 1009.4
20260509005028 22 166 8.0 24.1 0.00 0.13 0.13 73 1009.3
20260509004543 22 182 9.7 20.9 0.00 0.13 0.13 72 1009.2
20260509004028 22 166 8.0 19.3 0.00 0.13 0.13 72 1009.1
20260509003530 22 162 9.7 22.5 0.00 0.13 0.13 72 1008.9
20260509003046 22 165 11.3 22.5 0.00 0.13 0.13 72 1008.8
20260509002528 22 177 9.7 24.1 0.00 0.13 0.13 72 1008.8
20260509002029 22 136 11.3 24.1 0.00 0.13 0.13 71 1008.9
20260509001542 23 161 9.7 24.1 0.00 0.13 0.13 71 1008.9
20260509001029 23 149 9.7 25.7 0.00 0.13 0.13 71 1008.8
20260509000529 23 170 14.5 25.7 0.00 0.13 0.13 71 1008.9
20260509000044 23 183 11.3 22.5 0.00 0.13 0.13 71 1008.9
20260508235528 23 111 9.7 22.5 0.00 0.13 0.13 71 1009.1
20260508235028 23 132 9.7 22.5 0.00 0.13 0.13 71 1009.2
20260508234549 23 151 11.3 22.5 0.00 0.13 0.13 70 1009.3
20260508234027 23 185 6.4 17.7 0.00 0.13 0.13 69 1009.3
20260508233528 23 177 3.2 19.3 0.00 0.13 0.13 69 1009.3
20260508233043 23 192 11.3 19.3 0.00 0.13 0.13 68 1009.3
20260508232528 23 183 6.4 17.7 0.00 0.13 0.13 67 1009.4
20260508232026 23 167 4.8 17.7 0.00 0.13 0.13 68 1009.4
20260508231542 23 169 6.4 17.7 0.00 0.13 0.13 68 1009.5
20260508231029 23 167 6.4 19.3 0.00 0.13 0.13 68 1009.4
20260508230528 23 141 9.7 20.9 0.00 0.13 0.13 68 1009.5
20260508230100 23 132 9.7 20.9 0.00 0.13 0.13 68 1009.5
20260508225531 23 167 9.7 22.5 0.00 0.13 0.13 67 1009.5
20260508225028 23 168 9.7 24.1 0.00 0.13 0.13 67 1009.5
20260508224548 23 182 9.7 24.1 0.00 0.13 0.13 67 1009.5
20260508224028 23 117 4.8 17.7 0.00 0.13 0.13 67 1009.5
20260508223527 23 182 6.4 17.7 0.00 0.13 0.13 67 1009.5
20260508223042 24 151 6.4 27.4 0.00 0.13 0.13 67 1009.6
20260508222527 24 181 8.0 27.4 0.00 0.13 0.13 66 1009.5
20260508222028 23 186 14.5 25.7 0.00 0.13 0.13 66 1009.4
20260508221542 24 176 9.7 20.9 0.00 0.13 0.13 66 1009.4
20260508221028 24 193 9.7 20.9 0.00 0.13 0.13 64 1009.3
20260508220529 24 156 8.0 20.9 0.00 0.13 0.13 64 1009.4
20260508220111 25 195 4.8 22.5 0.00 0.13 0.13 63 1009.4
20260508215528 25 175 9.7 24.1 0.00 0.13 0.13 64 1009.3
20260508215028 25 165 11.3 24.1 0.00 0.13 0.13 63 1009.3
20260508214542 25 188 4.8 22.5 0.00 0.13 0.13 64 1009.2
20260508214030 25 153 8.0 22.5 0.00 0.13 0.13 64 1009.4
20260508213528 25 144 11.3 20.9 0.00 0.13 0.13 62 1009.5
20260508213040 25 0 8.0 17.7 0.00 0.13 0.13 62 1009.5
20260508212528 25 186 6.4 16.1 0.00 0.13 0.13 61 1009.5
20260508212027 25 155 6.4 17.7 0.00 0.13 0.13 63 1009.5
20260508211547 24 157 6.4 19.3 0.00 0.13 0.13 64 1009.6
20260508211028 24 126 4.8 25.7 0.00 0.13 0.13 65 1009.7
20260508210528 24 165 12.9 25.7 0.00 0.13 0.13 64 1009.9
20260508210044 23 195 6.4 20.9 0.00 0.13 0.13 65 1010.2
20260508205527 23 198 9.7 24.1 0.00 0.13 0.13 66 1010.4
20260508205028 23 182 11.3 24.1 0.00 0.13 0.13 66 1010.7
20260508204544 23 186 11.3 25.7 0.00 0.13 0.13 66 1011.0
20260508204031 23 184 11.3 25.7 0.00 0.13 0.13 66 1011.3
20260508203528 23 172 14.5 22.5 0.00 0.13 0.13 65 1011.5
20260508203046 23 186 11.3 20.9 0.00 0.13 0.13 66 1011.6
20260508202528 23 187 6.4 19.3 0.00 0.13 0.13 65 1011.6
20260508202027 23 188 9.7 22.5 0.00 0.13 0.13 65 1011.5
20260508201537 23 202 6.4 22.5 0.00 0.13 0.13 65 1011.5
20260508201028 23 169 6.4 19.3 0.00 0.13 0.13 65 1011.6
20260508200526 23 175 9.7 19.3 0.00 0.13 0.13 64 1011.6
20260508200035 23 182 8.0 16.1 0.00 0.13 0.13 64 1011.7
20260508195529 24 183 3.2 14.5 0.00 0.13 0.13 65 1011.6
20260508195028 23 164 4.8 22.5 0.00 0.13 0.13 64 1011.6
20260508194541 23 175 11.3 22.5 0.00 0.13 0.13 64 1011.6
20260508194029 23 165 8.0 22.5 0.00 0.13 0.13 64 1011.7
20260508193528 24 189 8.0 17.7 0.00 0.13 0.13 63 1011.6
20260508193048 24 205 8.0 17.7 0.00 0.13 0.13 62 1011.7
20260508192528 25 225 8.0 20.9 0.00 0.13 0.13 62 1011.7
20260508192027 25 222 11.3 20.9 0.00 0.13 0.13 61 1011.7
20260508191539 25 188 4.8 14.5 0.00 0.13 0.13 61 1011.7
20260508191029 25 171 4.8 14.5 0.00 0.13 0.13 61 1011.7
20260508190528 25 194 4.8 14.5 0.00 0.13 0.13 61 1011.8
20260508190043 25 143 4.8 17.7 0.00 0.13 0.13 59 1011.8
20260508185532 25 151 3.2 19.3 0.00 0.13 0.13 61 1011.9
20260508185028 25 162 4.8 19.3 0.00 0.13 0.13 62 1011.8
20260508184548 24 187 6.4 20.9 0.00 0.13 0.13 60 1011.9
20260508184029 24 163 6.4 20.9 0.00 0.13 0.13 60 1012.0
20260508183527 25 140 1.6 14.5 0.00 0.13 0.13 61 1012.0
20260508183045 24 198 3.2 19.3 0.00 0.13 0.13 60 1012.0
20260508182531 23 0 4.8 19.3 0.00 0.13 0.13 62 1012.1
20260508182026 23 182 4.8 19.3 0.00 0.13 0.13 62 1012.3
20260508181603 23 149 6.4 19.3 0.00 0.13 0.13 61 1012.5
20260508181026 23 186 4.8 17.7 0.00 0.13 0.13 60 1012.6
20260508180528 23 0 4.8 19.3 0.00 0.13 0.13 60 1012.8
20260508180048 23 0 4.8 19.3 0.00 0.13 0.13 61 1012.9
20260508175528 23 201 6.4 17.7 0.00 0.13 0.13 61 1013.0
20260508175027 23 34 3.2 19.3 0.00 0.13 0.13 64 1013.0
20260508174554 23 96 4.8 19.3 0.00 0.13 0.13 63 1012.9
20260508174027 22 144 4.8 12.9 0.00 0.13 0.13 63 1013.1
20260508173526 22 182 6.4 12.9 0.00 0.13 0.13 63 1013.1
20260508173043 22 0 1.6 16.1 0.00 0.13 0.13 64 1013.1
20260508172529 22 63 8.0 17.7 0.00 0.13 0.13 64 1013.2
20260508172028 22 140 8.0 17.7 0.00 0.13 0.13 64 1013.3
20260508171545 22 180 6.4 17.7 0.00 0.13 0.13 65 1013.5
20260508171026 22 118 8.0 17.7 0.00 0.13 0.13 65 1013.5
20260508170530 21 122 4.8 16.1 0.00 0.13 0.13 66 1013.7
20260508170043 21 169 9.7 19.3 0.00 0.13 0.13 65 1013.9
20260508165528 21 200 8.0 19.3 0.00 0.13 0.13 66 1014.0
20260508165028 21 138 9.7 17.7 0.00 0.13 0.13 65 1014.1
20260508164543 21 123 9.7 17.7 0.00 0.13 0.13 65 1014.1
20260508164026 21 180 4.8 17.7 0.00 0.13 0.13 67 1014.3
20260508163528 20 185 8.0 17.7 0.00 0.13 0.13 67 1014.4
20260508163039 20 150 3.2 17.7 0.00 0.13 0.13 67 1014.6
20260508162528 20 173 3.2 17.7 0.00 0.13 0.13 69 1014.8
20260508162030 20 105 6.4 19.3 0.00 0.13 0.13 68 1014.7
20260508161543 20 193 6.4 22.5 0.00 0.13 0.13 69 1014.8
20260508161029 19 156 11.3 22.5 0.00 0.13 0.13 68 1014.9
20260508160528 19 164 6.4 19.3 0.00 0.13 0.13 69 1014.9
20260508160044 19 179 6.4 19.3 0.00 0.13 0.13 69 1014.9
20260508155532 19 153 4.8 17.7 0.00 0.13 0.13 70 1014.9
20260508155031 19 163 8.0 17.7 0.00 0.13 0.13 69 1014.9
20260508154545 19 0 3.2 12.9 0.00 0.13 0.13 71 1015.0
20260508154031 19 78 3.2 16.1 0.00 0.13 0.13 71 1015.2
20260508153531 18 177 4.8 16.1 0.00 0.13 0.13 71 1015.0
20260508153043 18 136 8.0 16.1 0.00 0.13 0.13 70 1015.2
20260508152528 18 160 6.4 16.1 0.00 0.13 0.13 70 1015.2
20260508152028 18 178 8.0 19.3 0.00 0.13 0.13 71 1015.0
20260508151542 18 178 11.3 19.3 0.00 0.13 0.13 70 1015.1
20260508151027 18 160 4.8 14.5 0.00 0.13 0.13 72 1015.1
20260508150527 18 155 6.4 14.5 0.00 0.13 0.13 72 1015.1
20260508150042 18 171 4.8 12.9 0.00 0.13 0.13 73 1015.1
20260508145528 18 171 1.6 16.1 0.00 0.13 0.13 74 1015.1
20260508145027 18 106 6.4 16.1 0.00 0.13 0.13 73 1015.1
20260508144543 18 157 4.8 12.9 0.00 0.13 0.13 75 1015.2
20260508144028 18 184 4.8 19.3 0.00 0.13 0.13 76 1015.1
20260508143529 17 158 4.8 19.3 0.00 0.13 0.13 76 1015.1
20260508143046 17 171 9.7 16.1 0.00 0.13 0.13 76 1015.2
20260508142530 17 173 4.8 14.5 0.00 0.13 0.13 77 1015.3
20260508142030 17 144 3.2 12.9 0.00 0.13 0.13 78 1015.3
20260508141553 17 138 4.8 12.9 0.00 0.13 0.13 79 1015.3
20260508141026 17 138 3.2 11.3 0.00 0.13 0.13 82 1015.3
20260508140529 17 0 3.2 11.3 0.00 0.13 0.13 82 1015.3
20260508140042 17 0 1.6 8.0 0.00 0.13 0.13 82 1015.4
20260508135530 17 0 1.6 8.0 0.00 0.13 0.13 83 1015.4
20260508135027 17 102 1.6 8.0 0.00 0.13 0.13 84 1015.1
20260508134555 16 135 1.6 8.0 0.00 0.13 0.13 85 1015.1
20260508134027 16 0 1.6 12.9 0.00 0.13 0.13 85 1015.2
20260508133529 16 136 3.2 12.9 0.00 0.13 0.13 85 1015.2
20260508133043 16 0 0.0 12.9 0.00 0.13 0.13 86 1015.2
20260508132532 16 170 4.8 12.9 0.00 0.13 0.13 87 1015.2
20260508132029 16 141 3.2 11.3 0.00 0.13 0.13 88 1015.2
20260508131541 15 158 3.2 8.0 0.00 0.13 0.13 88 1015.4
20260508131028 15 122 1.6 8.0 0.00 0.13 0.13 88 1015.3
20260508130528 15 0 0.0 4.8 0.03 0.13 0.13 88 1015.3
20260508130040 15 81 0.0 6.4 0.03 0.13 0.13 88 1015.3
20260508125528 15 0 0.0 6.4 0.03 0.13 0.13 88 1015.3
20260508125027 15 159 0.0 9.7 0.03 0.13 0.13 87 1015.6
20260508124542 15 159 3.2 9.7 0.03 0.13 0.13 87 1015.7
20260508124027 15 159 3.2 9.7 0.03 0.13 0.13 87 1015.5
20260508123528 15 179 1.6 6.4 0.03 0.13 0.13 86 1015.2
20260508123051 15 179 3.2 8.0 0.03 0.13 0.13 85 1015.9
20260508122530 15 179 3.2 8.0 0.03 0.13 0.13 85 1016.0
20260508122028 16 0 3.2 12.9 0.03 0.13 0.13 85 1015.5
20260508121543 15 170 1.6 12.9 0.03 0.13 0.13 86 1015.5
20260508121028 15 130 4.8 12.9 0.00 0.10 0.10 86 1015.5
20260508120528 15 155 6.4 16.1 0.00 0.10 0.10 87 1015.4
20260508120045 15 168 4.8 16.1 0.00 0.10 0.10 88 1015.5
20260508115527 15 115 4.8 14.5 0.00 0.10 0.10 89 1015.4
20260508115025 15 161 4.8 14.5 0.00 0.10 0.10 90 1015.4
20260508114549 15 137 9.7 14.5 0.03 0.10 0.10 90 1015.8
20260508114029 15 156 4.8 11.3 0.03 0.10 0.10 90 1015.5
20260508113527 15 150 4.8 11.3 0.03 0.10 0.10 91 1015.3
20260508113054 16 145 3.2 6.4 0.03 0.10 0.10 91 1015.4
20260508112527 16 0 0.0 1.6 0.03 0.10 0.10 91 1015.4
20260508112026 15 0 0.0 6.4 0.03 0.10 0.10 91 1015.4
20260508111546 15 0 0.0 8.0 0.03 0.10 0.10 91 1015.4
20260508111028 15 0 1.6 8.0 0.03 0.10 0.10 91 1014.8
20260508110528 16 73 1.6 8.0 0.03 0.10 0.10 91 1014.9
20260508110039 15 73 1.6 4.8 0.03 0.10 0.10 91 1015.3
20260508105528 16 0 0.0 9.7 0.03 0.10 0.10 91 1015.8
20260508105027 15 0 3.2 9.7 0.00 0.08 0.08 90 1016.2
20260508104542 15 279 1.6 4.8 0.00 0.08 0.08 90 1016.2
20260508104026 15 0 0.0 4.8 0.00 0.08 0.08 90 1015.3
20260508103528 15 0 1.6 9.7 0.00 0.08 0.08 90 1015.6
20260508103042 15 279 1.6 9.7 0.00 0.08 0.08 90 1015.5
20260508102529 15 232 0.0 4.8 0.00 0.08 0.08 90 1015.3
20260508102028 15 0 0.0 4.8 0.03 0.08 0.08 90 1014.5
20260508101540 15 232 0.0 14.5 0.03 0.08 0.08 89 1014.5
20260508101025 15 232 3.2 14.5 0.03 0.08 0.08 89 1015.3
20260508100528 15 162 6.4 14.5 0.03 0.08 0.08 89 1014.6
20260508100039 16 150 3.2 6.4 0.03 0.08 0.08 90 1014.3
20260508095526 16 157 0.0 3.2 0.03 0.08 0.08 90 1014.4
20260508095032 15 0 0.0 4.8 0.03 0.08 0.08 90 1014.5
20260508094604 16 0 0.0 6.4 0.03 0.08 0.08 89 1014.4
20260508094026 15 157 1.6 8.0 0.03 0.08 0.08 90 1014.5
20260508093528 15 149 1.6 8.0 0.05 0.08 0.08 89 1014.6
20260508093043 16 0 0.0 3.2 0.05 0.08 0.08 89 1014.5
20260508092526 16 0 0.0 1.6 0.05 0.08 0.08 90 1014.5
20260508092028 15 0 0.0 3.2 0.03 0.05 0.05 89 1014.8
20260508091543 15 0 0.0 3.2 0.03 0.05 0.05 89 1014.6
20260508091030 15 0 0.0 3.2 0.03 0.05 0.05 89 1014.6
20260508090528 15 0 0.0 3.2 0.03 0.05 0.05 89 1014.8
20260508090043 15 0 0.0 4.8 0.05 0.05 0.05 89 1015.0
20260508085527 15 0 0.0 4.8 0.05 0.05 0.05 88 1014.9
20260508085027 15 5 3.2 4.8 0.05 0.05 0.05 87 1015.0
20260508084541 15 0 0.0 8.0 0.05 0.05 0.05 87 1015.4
20260508084027 15 0 1.6 8.0 0.05 0.05 0.05 87 1015.5
20260508083527 15 286 3.2 11.3 0.03 0.03 0.03 86 1015.5
20260508083043 16 190 1.6 11.3 0.03 0.03 0.03 86 1014.9
20260508082525 16 130 1.6 8.0 0.03 0.03 0.03 86 1014.2
20260508082028 16 97 1.6 8.0 0.03 0.03 0.03 86 1014.8
20260508081600 16 82 1.6 6.4 0.03 0.03 0.03 85 1015.1
20260508081029 16 82 0.0 4.8 0.03 0.03 0.03 83 1015.9
20260508080528 16 0 0.0 6.4 0.03 0.03 0.03 80 1015.7
20260508080039 17 82 1.6 6.4 0.00 0.00 0.00 76 1015.5
20260508075526 17 128 1.6 4.8 0.00 0.00 0.00 73 1015.7
20260508075027 17 0 0.0 6.4 0.00 0.00 0.00 72 1016.5
20260508074542 17 163 1.6 6.4 0.00 0.00 0.00 72 1016.9
20260508074028 17 163 0.0 3.2 0.00 0.00 0.00 71 1016.7
20260508073528 17 0 1.6 3.2 0.00 0.00 0.00 71 1016.6
20260508073044 17 0 0.0 3.2 0.00 0.00 0.00 71 1016.3
20260508072524 17 0 0.0 3.2 0.00 0.00 0.00 71 1015.9
20260508072027 17 0 0.0 3.2 0.00 0.00 0.00 71 1015.9
20260508071546 17 0 0.0 6.4 0.00 0.00 0.00 71 1015.8
20260508071027 17 0 0.0 6.4 0.00 0.00 0.00 71 1015.9
20260508070528 17 0 0.0 1.6 0.00 0.00 0.00 71 1016.0
20260508070044 17 0 0.0 3.2 0.00 0.00 0.00 71 1016.0
20260508065527 17 0 0.0 3.2 0.00 0.00 0.00 71 1016.1
20260508065027 17 0 1.6 3.2 0.00 0.00 0.00 71 1015.9
20260508064543 17 163 0.0 3.2 0.00 0.00 0.00 70 1015.9
20260508064030 17 163 1.6 3.2 0.00 0.00 0.00 70 1016.2
20260508063529 17 0 0.0 6.4 0.00 0.00 0.00 69 1016.6
20260508063053 17 0 0.0 8.0 0.00 0.00 0.00 68 1016.6
20260508062530 17 163 1.6 8.0 0.00 0.00 0.00 68 1016.6
20260508062028 17 163 3.2 8.0 0.00 0.00 0.00 69 1016.7
20260508061548 17 163 3.2 6.4 0.00 0.00 0.00 70 1016.6
20260508061028 17 163 1.6 6.4 0.00 0.00 0.00 71 1016.7
20260508060528 17 163 0.0 3.2 0.00 0.00 0.00 71 1016.6
20260508060040 17 0 0.0 0.0 0.00 0.00 0.00 71 1016.4
20260508055529 17 0 0.0 0.0 0.00 0.00 0.00 70 1016.4